Tracking 22879 objects as of 21-Apr-2021
HD Live streaming from Space Station
objects crossing your sky now

STARLINK-2039

Track STARLINK-2039 now!
10-day predictions
STARLINK-2039 is classified as:


NORAD ID: 47655
Int'l Code: 2021-012AM
Perigee: 553.4 km
Apogee: 555.6 km
Inclination: 53.1 °
Period: 95.6 minutes
Semi major axis: 6925 km
RCS: Unknown
Launch date: February 16, 2021
Source: United States (US)
Launch site: AIR FORCE EASTERN TEST RANGE (AFETR)
aabbcc
Your satellite tracking list
Your tracking list is empty




NASA's NSSDC Master Catalog

Two Line Element Set (TLE):
1 47655U 21012AM  21110.58335648  .00048396  00000-0  32491-2 0  9991
2 47655  53.0508 160.7812 0001564  73.5758 130.0092 15.06360973  1754
Source of the keplerian elements: AFSPC